| time (UTC) | temp C | wind direction | speed KPH | gust KPH | rain 1hr cm | rain 24hr cm | rain mn cm | humidity % | barometer mb |
| 20260505061507 | 10 | 56 | 6.4 | 27.4 | 0.00 | 0.00 | 0.00 | 66 | 1012.0 |
| 20260505060014 | 10 | 77 | 8.0 | 20.9 | 0.00 | 0.00 | 0.00 | 66 | 1012.0 |
| 20260505054503 | 10 | 39 | 8.0 | 16.1 | 0.00 | 0.00 | 0.00 | 66 | 1012.2 |
| 20260505053002 | 10 | 54 | 6.4 | 16.1 | 0.00 | 0.00 | 0.00 | 67 | 1012.3 |
| 20260505051501 | 10 | 51 | 9.7 | 19.3 | 0.00 | 0.00 | 0.00 | 67 | 1012.3 |
| 20260505041555 | 10 | 32 | 6.4 | 17.7 | 0.00 | 0.00 | 0.00 | 68 | 1012.5 |
| 20260505040054 | 10 | 63 | 4.8 | 16.1 | 0.00 | 0.00 | 0.00 | 68 | 1012.5 |
| 20260505034553 | 10 | 27 | 1.6 | 12.9 | 0.00 | 0.00 | 0.00 | 69 | 1012.4 |
| 20260505033110 | 10 | 49 | 4.8 | 16.1 | 0.00 | 0.00 | 0.00 | 69 | 1012.5 |
| 20260505031551 | 10 | 41 | 3.2 | 19.3 | 0.00 | 0.00 | 0.00 | 69 | 1012.6 |
| 20260505030052 | 10 | 39 | 4.8 | 14.5 | 0.00 | 0.03 | 0.00 | 69 | 1012.6 |
| 20260505024550 | 10 | 34 | 6.4 | 20.9 | 0.00 | 0.03 | 0.00 | 68 | 1012.7 |
| 20260505023059 | 11 | 349 | 8.0 | 17.7 | 0.00 | 0.03 | 0.00 | 69 | 1012.6 |
| 20260505021548 | 11 | 44 | 6.4 | 20.9 | 0.00 | 0.03 | 0.00 | 69 | 1012.3 |
| 20260505020051 | 11 | 33 | 4.8 | 16.1 | 0.00 | 0.03 | 0.00 | 69 | 1012.3 |
| 20260505014544 | 11 | 40 | 9.7 | 20.9 | 0.00 | 0.03 | 0.00 | 69 | 1012.4 |
| 20260505013041 | 11 | 26 | 6.4 | 19.3 | 0.00 | 0.03 | 0.00 | 70 | 1012.6 |
| 20260505011537 | 11 | 33 | 8.0 | 20.9 | 0.00 | 0.03 | 0.00 | 70 | 1012.8 |
| 20260505010040 | 10 | 11 | 6.4 | 17.7 | 0.00 | 0.03 | 0.00 | 71 | 1013.0 |
| 20260505004543 | 11 | 76 | 9.7 | 20.9 | 0.00 | 0.03 | 0.00 | 71 | 1013.2 |
| 20260505003032 | 11 | 32 | 6.4 | 17.7 | 0.00 | 0.03 | 0.00 | 71 | 1013.3 |
| 20260505001531 | 11 | 8 | 9.7 | 20.9 | 0.00 | 0.03 | 0.00 | 71 | 1013.3 |
| 20260505000031 | 11 | 63 | 9.7 | 22.5 | 0.00 | 0.03 | 0.00 | 71 | 1013.4 |
| 20260504234533 | 11 | 52 | 8.0 | 25.7 | 0.00 | 0.03 | 0.00 | 71 | 1013.3 |
| 20260504233022 | 11 | 359 | 8.0 | 20.9 | 0.00 | 0.03 | 0.00 | 71 | 1013.4 |
| 20260504231532 | 10 | 30 | 6.4 | 17.7 | 0.00 | 0.03 | 0.00 | 71 | 1013.5 |
| 20260504230014 | 10 | 46 | 6.4 | 24.1 | 0.00 | 0.03 | 0.00 | 72 | 1013.6 |
| 20260504224515 | 10 | 30 | 11.3 | 25.7 | 0.00 | 0.03 | 0.00 | 72 | 1013.6 |
| 20260504223010 | 10 | 58 | 8.0 | 24.1 | 0.00 | 0.03 | 0.00 | 71 | 1013.7 |
| 20260504221507 | 10 | 21 | 9.7 | 17.7 | 0.00 | 0.03 | 0.00 | 71 | 1013.9 |
| 20260504220003 | 11 | 27 | 8.0 | 20.9 | 0.00 | 0.03 | 0.03 | 71 | 1014.0 |
| 20260504214604 | 11 | 30 | 9.7 | 20.9 | 0.00 | 0.03 | 0.03 | 72 | 1014.1 |
| 20260504213105 | 10 | 41 | 8.0 | 17.7 | 0.00 | 0.03 | 0.03 | 72 | 1014.3 |
| 20260504211605 | 11 | 11 | 11.3 | 20.9 | 0.00 | 0.03 | 0.03 | 72 | 1014.4 |
| 20260504210104 | 11 | 15 | 8.0 | 17.7 | 0.00 | 0.03 | 0.03 | 72 | 1014.4 |
| 20260504204637 | 10 | 36 | 8.0 | 19.3 | 0.00 | 0.03 | 0.03 | 72 | 1014.5 |
| 20260504203055 | 11 | 355 | 11.3 | 19.3 | 0.00 | 0.03 | 0.03 | 72 | 1014.5 |
| 20260504201552 | 11 | 7 | 8.0 | 19.3 | 0.00 | 0.03 | 0.03 | 71 | 1014.4 |
| 20260504200055 | 11 | 24 | 8.0 | 19.3 | 0.00 | 0.03 | 0.03 | 71 | 1014.4 |
| 20260504194552 | 11 | 72 | 9.7 | 19.3 | 0.00 | 0.03 | 0.03 | 71 | 1014.0 |
| 20260504193048 | 11 | 31 | 9.7 | 20.9 | 0.00 | 0.03 | 0.03 | 71 | 1013.9 |
| 20260504191547 | 11 | 41 | 8.0 | 19.3 | 0.00 | 0.03 | 0.03 | 71 | 1013.7 |
| 20260504190055 | 11 | 66 | 6.4 | 19.3 | 0.00 | 0.03 | 0.03 | 72 | 1013.7 |
| 20260504184600 | 11 | 40 | 1.6 | 20.9 | 0.00 | 0.03 | 0.03 | 72 | 1013.6 |
| 20260504183053 | 11 | 40 | 11.3 | 22.5 | 0.00 | 0.03 | 0.03 | 72 | 1013.6 |
| 20260504181544 | 11 | 6 | 9.7 | 22.5 | 0.00 | 0.03 | 0.03 | 71 | 1013.5 |
| 20260504180043 | 11 | 65 | 8.0 | 19.3 | 0.00 | 0.03 | 0.03 | 72 | 1013.7 |
| 20260504174542 | 11 | 21 | 11.3 | 20.9 | 0.00 | 0.03 | 0.03 | 71 | 1013.8 |
| 20260504173041 | 11 | 33 | 9.7 | 24.1 | 0.00 | 0.03 | 0.03 | 71 | 1013.6 |
| 20260504171545 | 12 | 36 | 6.4 | 19.3 | 0.00 | 0.03 | 0.03 | 72 | 1013.6 |
| 20260504081501 | 13 | 243 | 1.6 | 6.4 | 0.00 | 0.53 | 0.03 | 74 | 1013.7 |